Вернуться в каталог

ATLAS 5 CENTAUR DEB

LostHEO
NORAD 49373·DEBRIS·🇺🇸 United States

Запущен Oct 17, 2018 с Cape Canaveral Space Force Station

Loading…

Ближайшие Пролёты (ближайшие 24 часа)

TLE

УстаревшееSource: Space-Track

Эпоха: Dec 15, 2022, 21:05 UTC

1 49373U 18079GA  22349.87904317 -.00000069  00000-0  00000+0 0  9995
2 49373  11.2498 140.1635 4905924 134.1024 278.6072  1.94803257  9348

Отслеживайте ATLAS 5 CENTAUR DEB в реальном времени с AllMySat

Download on the App Store